Hourly Data Report for February 18, 2018

MIRAMICHI RCS
NEW BRUNSWICK

47°00'34.000" N
65°27'54.000" W
33.00 m
8100989
71744
ACQ

Download Data

Hourly Data (February 2018)
Hourly Data Report for February 18, 2018
TIME
LST
Temp Definition
°C
Dew Point Definition
°C
Rel Hum Definition
%
Precip. Amount Definition
mm

Wind Dir Definition
10's deg

Wind Spd Definition
km/h
Visibility Definition
km
Stn Press Definition
kPa
Hmdx Definition


Wind Chill Definition


Weather Definition


00:00 -9.3 -17.5 51 0.0 18 12   101.85   -15 LegendNANA
01:00 -9.2 -16.7 55 0.0 18 8   101.84   -14 LegendNANA
02:00 -9.5 -16.6 56 0.0 15 4   101.76   -12 LegendNANA
03:00 -10.3 -15.9 63 0.0 25 3   101.68   -12 LegendNANA
04:00 -9.6 -14.7 66 0.0   0   101.58     LegendNANA
05:00 -8.8 -13.4 69 0.0 12 4   101.49   -11 LegendNANA
06:00 -7.5 -12.3 68 0.0 16 5   101.43   -10 LegendNANA
07:00 -8.6 -11.7 78 0.0 6 5   101.35   -11 LegendNANA
08:00 -8.6 -10.8 84 0.2 8 1   101.38   -9 LegendNANA
09:00 -8.1 -9.8 87 0.3 7 5   101.34   -11 LegendNANA
10:00 -5.9 -8.3 83 0.2   0   101.34     LegendNANA
11:00 -4.7 -7.2 82 0.2 7 1   101.33   -5 LegendNANA
12:00 -3.8 -6.6 81 0.3 27 2   101.32   -5 LegendNANA
13:00 -1.0 -6.2 68 0.0   0   101.27     LegendNANA
14:00 -1.4 -6.2 70 0.0 24 15   101.32   -6 LegendNANA
15:00 -0.6 -6.1 67 0.0 22 9   101.36   -4 LegendNANA
16:00 0.3 -5.8 63 0.0 25 8   101.44     LegendNANA
17:00 -0.2 -5.4 68 0.0 24 6   101.53   -2 LegendNANA
18:00 -0.6 -5.3 70 0.0 27 8   101.67   -3 LegendNANA
19:00 -4.0 -7.5 77 0.0 3 3   101.78   -5 LegendNANA
20:00 -5.9 -6.8 94 0.0 3 2   101.94   -7 LegendNANA
21:00 -8.3 -9.9 88 0.0 26 6   102.16   -12 LegendNANA
22:00 -6.5 -7.9 90 0.0 26 6   102.22   -9 LegendNANA
23:00 -8.0 -9.2 91 0.0 26 11   102.43   -13 LegendNANA

Notes on Data Quality.

Legend

  • E = Estimated
  • M = Missing
  • NA = Not Available*
  • [empty] = Indicates an unobserved value
Date modified: